| time (UTC) | temp C | wind direction | speed KPH | gust KPH | rain 1hr cm | rain 24hr cm | rain mn cm | humidity % | barometer mb |
| 20260504050305 | 8 | 208 | 0.0 | 0.0 | 0.00 | 0.00 | 0.00 | 69 | 1003.6 |
| 20260504045802 | 8 | 208 | 0.0 | 0.0 | 0.00 | 0.00 | 0.00 | 71 | 1003.8 |
| 20260504045304 | 7 | 208 | 0.0 | 0.0 | 0.00 | 0.00 | 0.00 | 73 | 1003.8 |
| 20260504044800 | 8 | 208 | 0.0 | 0.0 | 0.00 | 0.00 | 0.00 | 72 | 1003.8 |
| 20260504044257 | 8 | 208 | 0.0 | 0.0 | 0.00 | 0.00 | 0.00 | 71 | 1004.0 |
| 20260504043754 | 9 | 208 | 0.0 | 0.0 | 0.00 | 0.00 | 0.00 | 68 | 1003.9 |
| 20260504043251 | 10 | 208 | 0.0 | 0.0 | 0.00 | 0.00 | 0.00 | 64 | 1004.0 |
| 20260504042749 | 9 | 207 | 0.0 | 0.0 | 0.00 | 0.00 | 0.00 | 63 | 1004.0 |
| 20260504042245 | 8 | 220 | 0.0 | 0.0 | 0.00 | 0.00 | 0.00 | 70 | 1004.1 |
| 20260504041741 | 8 | 220 | 0.0 | 0.0 | 0.00 | 0.00 | 0.00 | 69 | 1003.9 |
| 20260504041238 | 9 | 220 | 0.0 | 0.0 | 0.00 | 0.00 | 0.00 | 67 | 1004.0 |
| 20260504040734 | 9 | 220 | 0.0 | 0.0 | 0.00 | 0.00 | 0.00 | 66 | 1004.1 |
| 20260504040232 | 9 | 220 | 0.0 | 0.0 | 0.00 | 0.00 | 0.00 | 62 | 1004.0 |
| 20260504035727 | 9 | 220 | 0.0 | 0.0 | 0.00 | 0.00 | 0.00 | 65 | 1004.1 |
| 20260504035225 | 9 | 220 | 0.0 | 0.0 | 0.00 | 0.00 | 0.00 | 63 | 1004.5 |
| 20260504034722 | 9 | 220 | 0.0 | 0.0 | 0.00 | 0.00 | 0.00 | 62 | 1004.4 |
| 20260504034219 | 9 | 220 | 0.0 | 0.0 | 0.00 | 0.00 | 0.00 | 62 | 1004.6 |
| 20260504033717 | 10 | 220 | 0.0 | 0.0 | 0.00 | 0.00 | 0.00 | 63 | 1004.7 |
| 20260504033214 | 10 | 220 | 0.0 | 0.0 | 0.00 | 0.00 | 0.00 | 62 | 1004.8 |
| 20260504032711 | 10 | 220 | 0.0 | 0.0 | 0.00 | 0.00 | 0.00 | 61 | 1004.7 |
| 20260504032208 | 10 | 220 | 0.0 | 0.0 | 0.00 | 0.00 | 0.00 | 60 | 1004.8 |
| 20260504031705 | 10 | 220 | 0.0 | 0.0 | 0.00 | 0.00 | 0.00 | 61 | 1004.9 |
| 20260504031202 | 10 | 220 | 0.0 | 0.0 | 0.00 | 0.00 | 0.00 | 61 | 1005.1 |
| 20260504030658 | 10 | 220 | 0.0 | 0.0 | 0.00 | 0.00 | 0.00 | 60 | 1004.9 |
| 20260504030155 | 10 | 220 | 0.0 | 0.0 | 0.00 | 0.00 | 0.00 | 58 | 1005.0 |
| 20260504025651 | 11 | 220 | 0.0 | 0.0 | 0.00 | 0.00 | 0.00 | 58 | 1005.0 |
| 20260504025148 | 11 | 220 | 0.0 | 0.0 | 0.00 | 0.00 | 0.00 | 55 | 1004.8 |
| 20260504024646 | 11 | 220 | 0.0 | 0.0 | 0.00 | 0.00 | 0.00 | 55 | 1005.0 |
| 20260504024142 | 11 | 221 | 0.0 | 0.0 | 0.00 | 0.00 | 0.00 | 53 | 1004.8 |
| 20260504023639 | 12 | 221 | 0.0 | 0.0 | 0.00 | 0.00 | 0.00 | 53 | 1005.0 |
| 20260504023135 | 12 | 223 | 0.0 | 0.0 | 0.00 | 0.00 | 0.00 | 51 | 1005.1 |
| 20260504022631 | 13 | 224 | 0.0 | 0.0 | 0.00 | 0.00 | 0.00 | 49 | 1004.9 |
| 20260504022127 | 13 | 224 | 0.0 | 0.0 | 0.00 | 0.00 | 0.00 | 47 | 1004.7 |
| 20260504021625 | 15 | 224 | 0.0 | 0.0 | 0.00 | 0.00 | 0.00 | 45 | 1004.8 |
| 20260504021121 | 16 | 224 | 0.0 | 0.0 | 0.00 | 0.00 | 0.00 | 40 | 1004.8 |
| 20260504020619 | 16 | 233 | 0.0 | 1.6 | 0.00 | 0.00 | 0.00 | 38 | 1004.8 |
| 20260504020115 | 16 | 235 | 1.6 | 1.6 | 0.00 | 0.00 | 0.00 | 36 | 1004.6 |
| 20260504015612 | 16 | 236 | 1.6 | 1.6 | 0.00 | 0.00 | 0.00 | 36 | 1004.7 |
| 20260504015108 | 16 | 236 | 0.0 | 0.0 | 0.00 | 0.00 | 0.00 | 35 | 1004.8 |
| 20260504014604 | 16 | 236 | 0.0 | 0.0 | 0.00 | 0.00 | 0.00 | 35 | 1004.6 |
| 20260504014101 | 16 | 236 | 0.0 | 0.0 | 0.00 | 0.00 | 0.00 | 36 | 1004.6 |
| 20260504013558 | 16 | 237 | 0.0 | 0.0 | 0.00 | 0.00 | 0.00 | 36 | 1004.6 |
| 20260504013055 | 16 | 239 | 0.0 | 1.6 | 0.00 | 0.00 | 0.00 | 36 | 1004.6 |
| 20260504012553 | 16 | 241 | 0.0 | 0.0 | 0.00 | 0.00 | 0.00 | 36 | 1004.8 |
| 20260504012051 | 17 | 240 | 0.0 | 1.6 | 0.00 | 0.00 | 0.00 | 36 | 1004.6 |
| 20260504011547 | 17 | 239 | 0.0 | 0.0 | 0.00 | 0.00 | 0.00 | 35 | 1004.5 |
| 20260504011043 | 18 | 243 | 0.0 | 1.6 | 0.00 | 0.00 | 0.00 | 34 | 1004.4 |
| 20260504010539 | 18 | 247 | 0.0 | 0.0 | 0.00 | 0.00 | 0.00 | 33 | 1004.4 |
| 20260504010035 | 19 | 261 | 0.0 | 0.0 | 0.00 | 0.00 | 0.00 | 32 | 1004.4 |
| 20260504005532 | 19 | 259 | 1.6 | 1.6 | 0.00 | 0.00 | 0.00 | 31 | 1004.3 |
| 20260504005030 | 20 | 284 | 1.6 | 3.2 | 0.00 | 0.00 | 0.00 | 31 | 1004.3 |
| 20260504004527 | 20 | 268 | 1.6 | 1.6 | 0.00 | 0.00 | 0.00 | 31 | 1004.5 |
| 20260504004024 | 20 | 287 | 1.6 | 3.2 | 0.00 | 0.00 | 0.00 | 30 | 1004.4 |
| 20260504003520 | 20 | 258 | 0.0 | 0.0 | 0.00 | 0.00 | 0.00 | 30 | 1004.3 |
| 20260504003017 | 21 | 263 | 1.6 | 1.6 | 0.00 | 0.00 | 0.00 | 29 | 1004.4 |
| 20260504002514 | 21 | 265 | 3.2 | 3.2 | 0.00 | 0.00 | 0.00 | 28 | 1004.3 |
| 20260504002012 | 22 | 255 | 1.6 | 1.6 | 0.00 | 0.00 | 0.00 | 27 | 1004.4 |
| 20260504001509 | 22 | 259 | 1.6 | 1.6 | 0.00 | 0.00 | 0.00 | 27 | 1004.4 |
| 20260504001005 | 22 | 238 | 3.2 | 3.2 | 0.00 | 0.00 | 0.00 | 26 | 1004.1 |
| 20260504000502 | 22 | 297 | 1.6 | 3.2 | 0.00 | 0.00 | 0.00 | 27 | 1004.1 |
| 20260503235959 | 22 | 254 | 3.2 | 4.8 | 0.00 | 0.00 | 0.00 | 26 | 1004.4 |
| 20260503235458 | 22 | 250 | 3.2 | 4.8 | 0.00 | 0.00 | 0.00 | 26 | 1004.4 |
| 20260503234954 | 23 | 312 | 3.2 | 3.2 | 0.00 | 0.00 | 0.00 | 26 | 1004.1 |
| 20260503234452 | 23 | 261 | 3.2 | 4.8 | 0.00 | 0.00 | 0.00 | 26 | 1004.1 |
| 20260503233950 | 23 | 229 | 1.6 | 3.2 | 0.00 | 0.00 | 0.00 | 26 | 1004.1 |
| 20260503233446 | 23 | 273 | 3.2 | 6.4 | 0.00 | 0.00 | 0.00 | 25 | 1004.3 |
| 20260503232942 | 23 | 264 | 4.8 | 4.8 | 0.00 | 0.00 | 0.00 | 26 | 1004.0 |
| 20260503232439 | 23 | 22 | 8.0 | 12.9 | 0.00 | 0.00 | 0.00 | 26 | 1003.9 |
| 20260503231937 | 23 | 264 | 3.2 | 3.2 | 0.00 | 0.00 | 0.00 | 26 | 1004.0 |
| 20260503231434 | 23 | 301 | 3.2 | 4.8 | 0.00 | 0.00 | 0.00 | 25 | 1004.1 |
| 20260503230931 | 23 | 274 | 3.2 | 3.2 | 0.00 | 0.00 | 0.00 | 26 | 1004.1 |
| 20260503230427 | 23 | 255 | 3.2 | 3.2 | 0.00 | 0.00 | 0.00 | 24 | 1004.3 |
| 20260503225925 | 23 | 292 | 4.8 | 6.4 | 0.00 | 0.00 | 0.00 | 26 | 1004.1 |
| 20260503225422 | 23 | 229 | 3.2 | 3.2 | 0.00 | 0.00 | 0.00 | 25 | 1004.0 |
| 20260503224917 | 24 | 342 | 14.5 | 16.1 | 0.00 | 0.00 | 0.00 | 25 | 1004.3 |
| 20260503224415 | 24 | 215 | 1.6 | 3.2 | 0.00 | 0.00 | 0.00 | 25 | 1004.3 |
| 20260503223912 | 24 | 280 | 4.8 | 6.4 | 0.00 | 0.00 | 0.00 | 25 | 1004.0 |
| 20260503223410 | 23 | 279 | 3.2 | 4.8 | 0.00 | 0.00 | 0.00 | 26 | 1004.3 |
| 20260503222910 | 23 | 262 | 1.6 | 3.2 | 0.00 | 0.00 | 0.00 | 24 | 1004.1 |
| 20260503222409 | 24 | 183 | 11.3 | 14.5 | 0.00 | 0.00 | 0.00 | 25 | 1004.0 |
| 20260503221907 | 24 | 278 | 1.6 | 3.2 | 0.00 | 0.00 | 0.00 | 24 | 1004.0 |
| 20260503221405 | 24 | 239 | 6.4 | 6.4 | 0.00 | 0.00 | 0.00 | 25 | 1003.9 |
| 20260503220901 | 24 | 245 | 3.2 | 4.8 | 0.00 | 0.00 | 0.00 | 24 | 1004.0 |
| 20260503220358 | 25 | 288 | 6.4 | 9.7 | 0.00 | 0.00 | 0.00 | 25 | 1004.0 |
| 20260503215855 | 25 | 307 | 11.3 | 14.5 | 0.00 | 0.00 | 0.00 | 23 | 1003.9 |
| 20260503215352 | 24 | 299 | 3.2 | 6.4 | 0.00 | 0.00 | 0.00 | 22 | 1003.9 |
| 20260503214849 | 23 | 280 | 3.2 | 4.8 | 0.00 | 0.00 | 0.00 | 25 | 1004.0 |
| 20260503214347 | 24 | 352 | 3.2 | 6.4 | 0.00 | 0.00 | 0.00 | 25 | 1003.9 |
| 20260503213844 | 23 | 258 | 9.7 | 16.1 | 0.00 | 0.00 | 0.00 | 25 | 1003.9 |
| 20260503213342 | 23 | 321 | 11.3 | 16.1 | 0.00 | 0.00 | 0.00 | 24 | 1003.8 |
| 20260503212838 | 23 | 320 | 9.7 | 12.9 | 0.00 | 0.00 | 0.00 | 23 | 1003.9 |
| 20260503212336 | 24 | 288 | 3.2 | 3.2 | 0.00 | 0.00 | 0.00 | 25 | 1004.0 |
| 20260503211833 | 24 | 291 | 6.4 | 9.7 | 0.00 | 0.00 | 0.00 | 26 | 1004.0 |
| 20260503211330 | 24 | 287 | 9.7 | 12.9 | 0.00 | 0.00 | 0.00 | 25 | 1004.0 |
| 20260503210825 | 24 | 332 | 6.4 | 11.3 | 0.00 | 0.00 | 0.00 | 25 | 1003.9 |
| 20260503210323 | 24 | 335 | 8.0 | 9.7 | 0.00 | 0.00 | 0.00 | 26 | 1004.0 |
| 20260503205817 | 23 | 281 | 3.2 | 3.2 | 0.00 | 0.00 | 0.00 | 26 | 1004.3 |
| 20260503205314 | 23 | 330 | 12.9 | 16.1 | 0.00 | 0.00 | 0.00 | 26 | 1004.0 |
| 20260503204811 | 23 | 319 | 11.3 | 20.9 | 0.00 | 0.00 | 0.00 | 25 | 1004.1 |
| 20260503204309 | 24 | 305 | 9.7 | 12.9 | 0.00 | 0.00 | 0.00 | 27 | 1004.3 |
| 20260503203806 | 24 | 261 | 6.4 | 9.7 | 0.00 | 0.00 | 0.00 | 26 | 1004.3 |
| 20260503203303 | 24 | 317 | 8.0 | 14.5 | 0.00 | 0.00 | 0.00 | 28 | 1004.1 |
| 20260503202759 | 23 | 328 | 9.7 | 14.5 | 0.00 | 0.00 | 0.00 | 25 | 1004.3 |
| 20260503202258 | 23 | 351 | 20.9 | 25.7 | 0.00 | 0.00 | 0.00 | 26 | 1004.5 |
| 20260503201755 | 23 | 332 | 12.9 | 14.5 | 0.00 | 0.00 | 0.00 | 26 | 1004.6 |
| 20260503201253 | 23 | 283 | 3.2 | 3.2 | 0.00 | 0.00 | 0.00 | 30 | 1004.4 |
| 20260503200750 | 23 | 334 | 6.4 | 9.7 | 0.00 | 0.00 | 0.00 | 27 | 1004.5 |
| 20260503200245 | 24 | 285 | 6.4 | 6.4 | 0.00 | 0.00 | 0.00 | 29 | 1004.5 |
| 20260503195743 | 24 | 276 | 6.4 | 9.7 | 0.00 | 0.00 | 0.00 | 29 | 1004.4 |
| 20260503195239 | 24 | 279 | 6.4 | 9.7 | 0.00 | 0.00 | 0.00 | 29 | 1004.5 |
| 20260503194737 | 24 | 313 | 6.4 | 6.4 | 0.00 | 0.00 | 0.00 | 29 | 1004.5 |
| 20260503194232 | 23 | 255 | 4.8 | 6.4 | 0.00 | 0.00 | 0.00 | 29 | 1004.4 |
| 20260503193729 | 23 | 288 | 14.5 | 16.1 | 0.00 | 0.00 | 0.00 | 27 | 1004.4 |
| 20260503193225 | 23 | 262 | 6.4 | 11.3 | 0.00 | 0.00 | 0.00 | 29 | 1004.7 |
| 20260503192721 | 23 | 330 | 6.4 | 9.7 | 0.00 | 0.00 | 0.00 | 32 | 1004.5 |
| 20260503192216 | 23 | 18 | 19.3 | 24.1 | 0.00 | 0.00 | 0.00 | 30 | 1004.5 |
| 20260503191713 | 23 | 4 | 14.5 | 17.7 | 0.00 | 0.00 | 0.00 | 30 | 1004.6 |
| 20260503191211 | 23 | 335 | 9.7 | 14.5 | 0.00 | 0.00 | 0.00 | 29 | 1004.7 |
| 20260503190707 | 22 | 148 | 6.4 | 11.3 | 0.00 | 0.00 | 0.00 | 33 | 1004.5 |
| 20260503190204 | 23 | 355 | 16.1 | 20.9 | 0.00 | 0.00 | 0.00 | 34 | 1004.7 |
| 20260503185701 | 23 | 304 | 3.2 | 3.2 | 0.00 | 0.00 | 0.00 | 31 | 1004.6 |
| 20260503185156 | 23 | 13 | 12.9 | 20.9 | 0.00 | 0.00 | 0.00 | 31 | 1004.5 |
| 20260503184651 | 23 | 299 | 14.5 | 20.9 | 0.00 | 0.00 | 0.00 | 31 | 1004.4 |
| 20260503184147 | 23 | 280 | 3.2 | 3.2 | 0.00 | 0.00 | 0.00 | 32 | 1004.6 |
| 20260503183644 | 23 | 296 | 12.9 | 16.1 | 0.00 | 0.00 | 0.00 | 30 | 1004.4 |
| 20260503183142 | 23 | 321 | 6.4 | 11.3 | 0.00 | 0.00 | 0.00 | 34 | 1004.4 |
| 20260503182640 | 23 | 3 | 9.7 | 17.7 | 0.00 | 0.00 | 0.00 | 34 | 1004.5 |
| 20260503182139 | 23 | 251 | 6.4 | 9.7 | 0.00 | 0.00 | 0.00 | 34 | 1004.5 |
| 20260503181635 | 23 | 258 | 6.4 | 9.7 | 0.00 | 0.00 | 0.00 | 31 | 1004.4 |
| 20260503181131 | 23 | 285 | 8.0 | 11.3 | 0.00 | 0.00 | 0.00 | 33 | 1004.3 |
| 20260503180628 | 23 | 283 | 4.8 | 11.3 | 0.00 | 0.00 | 0.00 | 33 | 1004.3 |
| 20260503180126 | 23 | 346 | 6.4 | 9.7 | 0.00 | 0.00 | 0.00 | 33 | 1004.8 |
| 20260503175623 | 23 | 300 | 3.2 | 6.4 | 0.00 | 0.00 | 0.00 | 35 | 1004.6 |
| 20260503175120 | 23 | 293 | 3.2 | 3.2 | 0.00 | 0.00 | 0.00 | 34 | 1004.7 |
| 20260503174616 | 22 | 232 | 3.2 | 3.2 | 0.00 | 0.00 | 0.00 | 33 | 1004.7 |
| 20260503174114 | 22 | 328 | 14.5 | 20.9 | 0.00 | 0.00 | 0.00 | 34 | 1004.8 |
| 20260503173608 | 22 | 243 | 6.4 | 6.4 | 0.00 | 0.00 | 0.00 | 34 | 1004.9 |
| 20260503173105 | 22 | 290 | 4.8 | 6.4 | 0.00 | 0.00 | 0.00 | 36 | 1004.8 |
| 20260503172602 | 22 | 297 | 6.4 | 9.7 | 0.00 | 0.00 | 0.00 | 34 | 1004.8 |
| 20260503172100 | 22 | 321 | 4.8 | 4.8 | 0.00 | 0.00 | 0.00 | 34 | 1004.8 |
| 20260503171556 | 22 | 269 | 6.4 | 9.7 | 0.00 | 0.00 | 0.00 | 34 | 1005.0 |
| 20260503171054 | 22 | 267 | 3.2 | 6.4 | 0.00 | 0.00 | 0.00 | 34 | 1004.9 |
| 20260503170549 | 22 | 228 | 3.2 | 3.2 | 0.00 | 0.00 | 0.00 | 34 | 1005.0 |
| 20260503150942 | 17 | 253 | 8.0 | 9.7 | 0.00 | 0.00 | 0.00 | 41 | 1005.4 |
| 20260503150439 | 16 | 244 | 9.7 | 11.3 | 0.00 | 0.00 | 0.00 | 41 | 1005.5 |
| 20260503131332 | 12 | 229 | 3.2 | 4.8 | 0.00 | 0.00 | 0.00 | 48 | 1006.6 |
| 20260503130829 | 12 | 246 | 4.8 | 6.4 | 0.00 | 0.00 | 0.00 | 49 | 1006.7 |
| 20260503130327 | 12 | 222 | 1.6 | 1.6 | 0.00 | 0.00 | 0.00 | 51 | 1006.8 |
| 20260503110715 | 11 | 218 | 0.0 | 0.0 | 0.00 | 0.00 | 0.00 | 50 | 1007.6 |
| 20260503110212 | 11 | 141 | 3.2 | 3.2 | 0.00 | 0.00 | 0.00 | 50 | 1007.4 |
| 20260503100138 | 11 | 167 | 4.8 | 4.8 | 0.00 | 0.00 | 0.00 | 46 | 1008.3 |
| 20260503081532 | 11 | 231 | 0.0 | 0.0 | 0.00 | 0.00 | 0.00 | 49 | 1010.8 |
| 20260503081030 | 11 | 263 | 0.0 | 0.0 | 0.00 | 0.00 | 0.00 | 49 | 1010.7 |
| 20260503080526 | 11 | 226 | 0.0 | 0.0 | 0.00 | 0.00 | 0.00 | 49 | 1010.5 |
| 20260503072459 | 11 | 337 | 0.0 | 1.6 | 0.00 | 0.00 | 0.00 | 49 | 1010.4 |
| 20260503071956 | 11 | 218 | 0.0 | 1.6 | 0.00 | 0.00 | 0.00 | 47 | 1010.4 |
| 20260503071453 | 12 | 223 | 0.0 | 1.6 | 0.00 | 0.00 | 0.00 | 46 | 1010.5 |
| 20260503070949 | 12 | 185 | 1.6 | 3.2 | 0.00 | 0.00 | 0.00 | 46 | 1010.4 |
| 20260503070446 | 12 | 173 | 1.6 | 3.2 | 0.00 | 0.00 | 0.00 | 44 | 1010.4 |